Regional Weather Roundup
Issued by NWS

Home | Current Version | Previous Version | Graphics & Text | Print | Product List | Glossary On
Versions: 1 2 3 4 5 6 7 8 9 10 11 12 13 14 15 16 17 18 19 20 21 22 23 24 25 26 27 28 29 30 31 32 33 34 35 36 37 38 39 40 41 42 43 44 45 46 47 48 49 50
000
ASUS45 KTFX 231110
RWRMT
MONTANA REGIONAL WEATHER ROUNDUP
NATIONAL WEATHER SERVICE GREAT FALLS MT
400 AM MST THU NOV 23 2017

NOTE: "FAIR" INDICATES FEW OR NO CLOUDS BELOW 12000 FEET WITH NO
SIGNIFICANT WEATHER AND/OR OBSTRUCTIONS TO VISIBILITY.

MTZ001>007-043-231200-
WEST OF THE DIVIDE

CITY           SKY/WX    TMP DP  RH WIND       PRES   REMARKS
KALISPELL      CLOUDY    52  46  80 S12       29.86F
MISSOULA       FOG       39  39 100 N6        30.02F VSB 1/2
BUTTE          FAIR      37  31  78 CALM      30.12F
MULLAN PASS    LGT RAIN  41  40  96 S15G25    29.97F VSB 3/4
ANACONDA         N/A     48  36  61 S14G20    30.07F
DEER LODGE       N/A     48  37  66 S7        30.06F
EUREKA           N/A     55  46  71 MISG      29.81F
HAMILTON         N/A     54  39  58 S14       30.02F
LIBBY            N/A    N/A N/A N/A CALM      29.83F VSB 3/4
RONAN            N/A     54  44  68 SE15      29.97F
$$

MTZ008-052>055-231200-
SOUTHWEST MONTANA

CITY           SKY/WX    TMP DP  RH WIND       PRES   REMARKS
BOZEMAN        FAIR      40  33  76 CALM      30.09F
DILLON         FAIR      39  34  82 S10       30.15F
W YELLOWSTONE  CLOUDY    41  37  87 SW18      30.28F
ENNIS          CLOUDY    46  39  76 S16G24    30.20F
$$

MTZ009-010-012-014-046-048-049-054-231200-
EAST SLOPES AND CENTRAL MONTANA

CITY           SKY/WX    TMP DP  RH WIND       PRES   REMARKS
CUT BANK       FAIR      54  42  64 W37G49    29.73F
GREAT FALLS    FAIR      58  37  45 SW25G35   29.85F
MALMSTROM AFB  MOCLDY    55  39  54 S15       29.87F
HELENA         FAIR      37  35  92 VRB3      30.00F
BOWMANS CRNR   FAIR      51  37  58 S23G29    29.88F
CHOTEAU          N/A     59  39  47 SW10G20   29.82F
FAIRFIELD      FAIR      55  38  53 S17G25    29.84F
POWER          FAIR      54  38  54 SW23G31   29.83F
RAYNESFORD     FAIR      62  36  38 SW23G36   29.90F
ULM            FAIR      59  38  45 SW10G18   29.90F
$$

MTZ011-013-016-021-045-047-050-051-231200-
NORTH CENTRAL MONTANA

CITY           SKY/WX    TMP DP  RH WIND       PRES   REMARKS
HAVRE          FAIR      46  40  79 SW13      29.76F
LEWISTOWN      FAIR      55  37  50 SW20      29.91F
N BAR RANCH    FAIR      57  34  41 W14       29.96F
CHINOOK          N/A     57  41  54 W10       29.76F
DENTON         FAIR      50  38  64 S23       29.84F
GEYSER         FAIR      57  37  47 W23       29.86F
GRASS RANGE    FAIR      55  36  49 SE7       29.87F
STANFORD       FAIR      60  35  39 W26G38    29.89F
WINIFRED       FAIR      54  38  56 SW17G24   29.86F
$$

MTZ017>020-022>027-061-062-231200-
NORTHEAST MONTANA

CITY           SKY/WX    TMP DP  RH WIND       PRES   REMARKS
GLASGOW        FAIR      41  37  86 W6        29.77F
GLENDIVE       FAIR      37  35  92 S9        29.84F WCI  30
JORDAN           N/A     50  40  68 W13       29.83F
SIDNEY         FAIR      32  31  96 S5        29.80F
WOLF POINT     FAIR      25  23  92 SW6       29.78F WCI  18
MALTA          CLEAR     54  41  62 W10       29.77F
PLENTYWOOD       N/A     28  27  93 CALM      29.74F
POPLAR           N/A     34  30  86 W5        29.78F
$$

MTZ028>42-056>058-231200-
SOUTHCENTRAL AND SOUTHEAST MONTANA

CITY           SKY/WX    TMP DP  RH WIND       PRES   REMARKS
BAKER          FAIR      44  39  82 CALM      29.90F
BILLINGS       FAIR      53  38  56 W17       29.97F
LIVINGSTON     FAIR      54  40  59 SW35G51   30.03F
MILES CITY     FAIR      46  40  79 E3        29.89F
BIG TIMBER     CLEAR     52  36  54 W9        30.03F
FORSYTH          N/A     57  37  47 CALM      29.90F
HARLOWTON      FAIR      44  36  75 SE6       29.96F
LAUREL           N/A     50  37  62 W12       30.00F
ROUNDUP          N/A     49  36  61 S7        29.88S
$$

REGIONAL REPORTS...DAKOTAS

CITY           SKY/WX    TMP DP  RH WIND       PRES   REMARKS
WILLISTON      FAIR      26  24  92 CALM      29.78F
MINOT          FAIR      28  25  88 S7        29.79F WCI  21
DICKINSON      FAIR      43  38  82 W12       29.83F
BEACH          FAIR      48  41  76 SW16      29.87F
CROSBY         FAIR      30  30 100 SW17      29.73F WCI  18
TIOGA          FAIR      30  30 100 SW7       29.78F WCI  23
WATFORD CITY   FAIR      32  32 100 SW10      29.78F WCI  24
BISMARCK       FAIR      26  22  84 E3        29.89F
GRAND FORKS    CLOUDY    26  24  92 S6        29.90F WCI  19
FARGO          CLOUDY    26  20  77 S5        29.93F
BUFFALO SD       N/A     45  38  76 W13       29.86F
RAPID CITY     FAIR      47  36  65 W3        30.00F
$$

REGIONAL REPORTS...WYOMING/IDAHO/WASHINGTON

CITY           SKY/WX    TMP DP  RH WIND       PRES   REMARKS
GILLETTE       FAIR      50  36  58 SW17      30.03F
SHERIDAN       FAIR      57  37  47 W14       30.01F
BUFFALO WY     FAIR      50  29  44 W9        30.07F
CODY           FAIR      54  35  48 VRB3      30.13
YELLOWSTONE LA   N/A     34  34 100 CALM      30.34F
IDAHO FALLS    FAIR      33  32  96 N6        30.27S FOG     WCI  28
SALMON         CLOUDY    38  37  97 CALM      30.20F FOG
BOISE          MOCLDY    47  45  93 NE3       30.11F
SPOKANE        CLOUDY    54  50  86 S17       29.86F
$$

REGIONAL REPORTS...ALBERTA

CITY           SKY/WX    TMP DP  RH WIND       PRES   REMARKS
EDMONTON       CLEAR     21  16  79 N5        29.32F
CALGARY        CLEAR     52  36  54 SW12G21   29.49F
LETHBRIDGE     CLEAR     55  43  62 SW32G44   29.60S
MEDICINE HAT   CLEAR     46  41  81 SW10G17   29.62F
$$

REGIONAL REPORTS...SASKATCHEWAN

CITY           SKY/WX    TMP DP  RH WIND       PRES   REMARKS
SWIFT CURRENT  CLEAR     41  36  81 SW21      29.58F
REGINA         CLEAR     18  16  93 E12       29.65F WCI   5
SASKATOON      PTCLDY    16  14  93 SE14      29.61F WCI   1
$$



USA.gov is the U.S. government's official web portal to all federal, state and local government web resources and services.